TIME,DELAY(SENSOR),PRES,OXYGEN,RAWTEMP,T(OPTODE),TCPHASE,FLUOR,BETA(BETA700),BETA(BETA412),BETA(BETA440),CDOM,C(CSC),ED(ED411.90),ED(ED443.80),ED(ED489.40),ED(ED554.70),LU(LU412.20),LU(LU443.80),LU(LU489.40),LU(LU555.00),COMP,TILTX,TILTY,CHECK
1370991645,5804,820.5499877929688000,162.2312927246093800,406.9137878417969000,10.3918600082397460,38.9141883850097660,52,99,95,80,79,10087,2146959972,2147517540,2147283282,2147491739,2147083812,2146932333,2147699986,2147121938,3186,-1,8,38150
1370995241,5807,930.4199829101562000,181.6062927246093800,484.6986999511719000,8.0034360885620120,38.8246192932128900,53,104,99,79,80,10079,2146963876,2147518802,2147290834,2147508214,2147086646,2146924123,2147717988,2147122020,336,-1,8,21592
1370998841,5807,948.9400024414062000,188.7462005615234400,500.5960998535156000,7.5110001564025880,38.6240501403808600,53,105,96,79,82,10078,2146963766,2147520292,2147295579,2147511414,2147083675,2146921371,2147713124,2147122139,2691,-1,8,19414
1371002441,5809,978.2700195312500000,209.5926971435547000,514.4724731445312000,7.0797858238220215,37.5749588012695300,52,106,97,81,81,10072,2146961883,2147521764,2147300242,2147513901,2147084626,2146921462,2147721846,2147119963,3121,-1,8,36137
1371006041,5805,982.1500244140625000,205.3684997558593800,515.3469848632812000,7.0525670051574710,37.8418312072753900,52,103,96,80,80,10072,2146966025,2147515840,2147295606,2147514267,2147086646,2146923858,2147722596,2147120448,3158,-1,8,37109
1371009641,5805,985.3400268554688000,209.3403930664062500,517.0527954101562000,6.9994568824768070,37.6348304748535160,52,109,97,80,80,10067,2146963465,2147520045,2147296118,2147513060,2147082093,2146925266,2147717056,2147121078,3188,-1,8,837
1371013241,5806,985.8400268554688000,206.7545928955078000,517.4509887695312000,6.9870572090148930,37.7953186035156250,53,107,97,81,80,10064,2146964096,2147521280,2147297654,2147510957,2147087323,2146919296,2147722944,2147119835,3034,-1,8,38708
1371016841,5807,986.5399780273438000,209.4196929931640600,516.2830200195312000,7.0234289169311520,37.6170310974121100,52,106,99,80,73,10057,2146960365,2147519616,2147300224,2147513728,2147085760,2146920310,2147723145,2147122294,632,-1,8,30951
1371020441,5804,986.8300170898438000,210.7973937988281200,516.9273071289062000,7.0033659934997560,37.5469703674316400,53,104,97,79,74,10068,2146964553,2147514614,2147299565,2147515474,2147086601,2146919533,2147720896,2147123766,3544,-1,8,51306
1371024041,5806,991.1300048828125000,212.0650024414062500,517.1279296875000000,6.9971170425415040,37.4767494201660160,52,104,96,79,76,10064,2146963657,2147514441,2147296932,2147515593,2147087716,2146920164,2147718372,2147122340,372,0,8,45402
1371027641,5805,991.3300170898438000,210.0662994384765600,517.1149291992188000,6.9975237846374510,37.5937385559082000,51,103,97,81,75,10064,2146961773,2147517485,2147294683,2147513673,2147088484,2146919798,2147718683,2147123904,189,-1,8,43581
1371031241,5805,990.7500000000000000,211.2830963134765600,517.2703247070312000,6.9926848411560060,37.5249595642089840,51,104,96,80,76,10061,2146960411,2147520045,2147299712,2147514194,2147085897,2146921901,2147721965,2147122870,230,-1,8,53100
1371034841,5807,993.3300170898438000,211.5850982666015600,517.1431274414062000,6.9966459274291990,37.5051803588867200,53,104,97,80,76,10049,2146964754,2147517915,2147298688,2147513618,2147086153,2146927899,2147718948,2147118866,318,-1,8,45694
1371038441,5806,998.9000244140625000,211.6018981933593800,516.4155883789062000,7.0192990303039550,37.4907684326171900,53,108,97,81,75,10049,2146960978,2147519963,2147297051,2147514614,2147082514,2146922934,2147720731,2147120768,735,-1,8,47116
1371042041,5802,994.1900024414062000,209.2279052734375000,517.1433715820312000,6.9966359138488770,37.6434593200683600,52,103,97,79,76,10055,2146962898,2147518409,2147297298,2147513472,2147085888,2146925805,2147720384,2147120521,777,-1,8,2653
1371045641,5804,990.1099853515625000,212.7380065917968800,518.8048706054688000,6.9448838233947750,37.4672698974609400,52,105,97,80,76,10058,2146965897,2147521216,2147297874,2147513508,2147087149,2146922368,2147719954,2147118765,2742,-1,8,16
1371049241,5805,993.6300048828125000,214.0722045898437500,518.2346191406250000,6.9626498222351070,37.3799209594726560,53,104,97,80,77,10050,2146962075,2147517193,2147295094,2147514642,2147088603,2146922889,2147718546,2147121444,2793,-1,8,32290
1371052841,5806,997.6400146484375000,209.3569946289062500,517.3085937500000000,6.9914908409118650,37.6387481689453100,53,102,97,79,78,10050,2146964891,2147519222,2147297947,2147513225,2147088411,2146919058,2147719232,2147119789,3339,-1,8,2834
1371056441,5803,996.1500244140625000,212.0834045410156200,517.2266845703125000,6.9940419197082520,37.4774589538574200,52,106,97,80,77,10051,2146963309,2147519140,2147298889,2147514221,2147087497,2146925979,2147717028,2147122523,2244,-1,8,42610
1371060041,5807,989.6599731445312000,212.0341033935547000,519.3513793945312000,6.9278569221496580,37.5180702209472660,52,103,97,79,77,10049,2146964370,2147518537,2147297929,2147512832,2147088036,2146920128,2147718381,2147119460,3292,-1,8,30621
1371063641,5804,984.2000122070312000,206.7351074218750000,520.6762084960938000,6.8865718841552730,37.8541183471679700,52,102,95,79,76,10046,2146964196,2147517714,2147296905,2147511936,2147088219,2146919936,2147718125,2147119350,2201,-1,8,51473
1371067241,5807,988.1900024414062000,212.8354949951172000,520.8411254882812000,6.8814330101013180,37.4980201721191400,52,105,96,78,78,10049,2146963190,2147518336,2147297700,2147514038,2147084617,2146921938,2147720466,2147120594,746,-1,8,23953
1371070841,5808,998.3900146484375000,213.6313934326172000,517.6220092773438000,6.9817299842834470,37.3950691223144500,52,104,96,78,77,10042,2146963309,2147519021,2147295186,2147514496,2147085540,2146920758,2147718336,2147120338,3590,-1,8,23593
1371074441,5807,997.4600219726562000,213.4467010498047000,517.6762084960938000,6.9800419807434080,37.4059715270996100,52,106,98,79,78,10040,2146962185,2147517513,2147297664,2147513846,2147086464,2146919387,2147722706,2147119360,145,-1,8,15360
1371078041,5804,1002.3699951171875000,212.3020935058593800,517.3975219726562000,6.9887208938598630,37.4676399230957000,53,105,98,80,78,10037,2146962532,2147520109,2147297417,2147514642,2147084416,2146920036,2147717531,2147118628,3054,-1,8,1524
1371081641,5807,1001.0300292968750000,212.9884033203125000,517.6293945312500000,6.9815011024475100,37.4324607849121100,52,101,99,80,78,10036,2146960649,2147519963,2147297005,2147512950,2147087780,2146921581,2147721929,2147120969,3252,-1,8,18557
1371085241,5805,994.8099975585938000,210.0648040771484400,518.6555786132812000,6.9495329856872560,37.6206283569335940,51,101,97,80,78,10034,2146963035,2147520246,2147295104,2147512274,2147086354,2146919588,2147719460,2147122349,3247,-1,8,25951
1371088841,5806,1001.6699829101562000,211.8168945312500000,517.9077148437500000,6.9728341102600100,37.5055618286132800,52,106,96,81,78,10033,2146959954,2147519643,2147299181,2147513252,2147085184,2146916342,2147721636,2147120274,3390,-1,8,25778
1371092441,5803,1004.8900146484375000,212.6768035888672000,517.1732788085938000,6.9957051277160645,37.4416809082031250,52,108,96,86,78,10023,2146959286,2147518025,2147298998,2147513974,2147084589,2146925650,2147719341,2147123136,3317,-1,8,45167
1371096041,5802,1003.9000244140625000,211.5897064208984400,517.3065185546875000,6.9915571212768555,37.5078697204589840,52,104,96,80,78,10033,2146961088,2147516461,2147295597,2147512219,2147087561,2146926738,2147716809,2147119716,3281,-1,8,55863
1371099641,5808,1007.9000244140625000,212.3567962646484400,517.4199218750000000,6.9880242347717285,37.4654502868652340,52,107,97,81,77,10026,2146963593,2147511643,2147297792,2147513316,2147085878,2146924754,2147719936,2147117814,6,-1,8,19640
1371103241,5809,1003.8400268554688000,210.2604980468750000,517.5593872070312000,6.9836812019348145,37.5898284912109400,53,102,97,80,78,9990,2146966564,2147519104,2147296027,2147511149,2147085814,2146925522,2147717083,2147119881,62,-1,8,45110
1371106841,5807,1000.0100097656250000,209.3441009521484400,517.5797729492188000,6.9830460548400880,37.6442794799804700,53,106,97,80,78,9982,2146966171,2147520173,2147294902,2147511332,2147089069,2146921179,2147717257,2147121526,411,-1,8,26731
1371110441,5808,994.4000244140625000,210.4136047363281200,518.2069702148438000,6.9635081291198730,37.5925407409668000,52,104,96,79,78,9976,2146963090,2147519716,2147296640,2147511899,2147087533,2146923529,2147720064,2147123830,319,-1,8,23707
1371114041,5805,1002.2899780273438000,212.1192932128906200,517.6964721679688000,6.9794111251831055,37.4836311340332000,53,114,97,80,77,9980,2146959341,2147517915,2147297819,2147517165,2147087753,2146919972,2147720612,2147126208,3275,-1,8,36663
1371117641,5804,995.8400268554688000,210.1121978759765600,518.9315185546875000,6.9409408569335940,37.6228904724121100,52,101,95,79,78,9978,2146963638,2147520585,2147296557,2147515364,2147088896,2146921362,2147721179,2147121380,2832,-1,8,50221
1371121241,5803,1000.3599853515625000,212.7866973876953000,518.4127197265625000,6.9571027755737305,37.4576301574707000,52,104,97,80,78,9978,2146962934,2147519808,2147295360,2147513627,2147091602,2146920466,2147719917,2147122660,2869,-1,8,46240
1371124841,5806,1002.4600219726562000,213.3769989013672000,518.2736816406250000,6.9614319801330570,37.4208908081054700,52,103,97,78,77,9978,2146966162,2147521536,2147295341,2147514605,2147084214,2146919926,2147722212,2147121033,2935,-1,8,58671
1371128441,5804,1002.1400146484375000,208.0682983398437500,517.4450073242188000,6.9872431755065920,37.7171287536621100,52,101,96,79,78,9967,2146961993,2147524269,2147295332,2147511734,2147085705,2146920594,2147719707,2147118107,3451,-1,8,65227
1371132041,5810,1001.9500122070312000,213.3292999267578000,519.1483154296875000,6.9341840744018555,37.4391403198242200,52,104,95,79,78,9973,2146960109,2147523721,2147298230,2147514258,2147085504,2146922285,2147720082,2147122980,2700,-1,8,45618
1371133556,5805,1001.4899902343750000,213.6728973388672000,518.8178710937500000,6.9444780349731445,37.4133186340332000,52,101,97,78,79,10018,2146962294,2147522203,2147296923,2147512795,2147083830,2146919698,2147722733,2147121490,3266,-1,8,43642
